Regional Weather Roundup
Issued by NWS

Home | Current Version | Previous Version | Graphics & Text | Print | Product List | Glossary Off
Versions: 1 2 3 4 5 6 7 8 9 10 11 12 13 14 15 16 17 18 19 20 21 22 23 24 25 26 27 28 29 30 31 32 33 34 35 36 37 38 39 40 41 42 43 44 45 46 47 48 49 50

000
ASUS43 KDTX 212110
RWRMI
MICHIGAN HOURLY REGIONAL WEATHER ROUNDUP
NATIONAL WEATHER SERVICE DETROIT/PONTIAC MI
400 PM EST SUN DEC 21 2014

NOTE: "FAIR" INDICATES FEW OR NO CLOUDS BELOW 12,000 FEET WITH NO
SIGNIFICANT WEATHER AND/OR OBSTRUCTION TO VISIBILITY.

MIZ047>049-052>055-059>063-066>070-074>076-081>083-212200-
SOUTHEAST LOWER MICHIGAN

CITY           SKY/WX    TMP DP  RH WIND       PRES   REMARKS
ADRIAN         CLOUDY    33  27  78 S8        30.22S
ALMA           CLOUDY    33  28  80 S6        30.18S
ANN ARBOR      CLOUDY    33  25  72 S5        30.22R
BAD AXE        CLOUDY    32  26  80 S5        30.23R
DETROIT CITY   PTCLDY    34  22  61 S10       30.25R
DETROIT        CLOUDY    32  22  66 SE5       30.25R
FLINT          CLOUDY    34  23  64 S10       30.21S
GROSSE ILE     MOCLDY    32  25  74 SE7       30.24R
HILLSDALE      CLOUDY    33  27  79 SE6       30.17S
HOWELL         CLOUDY    32  27  81 SE8       30.20R

CITY           SKY/WX    TMP DP  RH WIND       PRES   REMARKS
JACKSON        CLOUDY    33  26  75 SE8       30.19R HAZE
LAMBERTVILLE   CLOUDY    36  27  69 SE3       30.23S
LANSING        CLOUDY    33  25  72 S7        30.19S
LAPEER         NOT AVBL
MASON          CLOUDY    32  27  80 SE6       30.19S
MONROE         CLOUDY    34  25  69 E6        30.22S
MT. CLEMENS    MOCLDY    33  26  73 S9        30.22R
PONTIAC        CLOUDY    33  23  66 S8        30.20R
PORT HOPE        N/A     33  24  69 S5        30.22R
PORT HURON     CLEAR     32  23  69 S7        30.24R
TRI CITIES     CLOUDY    35  27  72 S8        30.21R
YPSILANTI      CLOUDY    36  23  59 SE9       30.23R
$$
MIZ043>046-050>051-056>058-064>065-071>073-077>080-212200-
SOUTHWEST LOWER MICHIGAN

CITY           SKY/WX    TMP DP  RH WIND       PRES   REMARKS
BATTLE CREEK   CLOUDY    35  24  64 S10       30.17S
BENTON HARBOR  CLOUDY    35  28  75 SE10      30.14S
BIG RAPIDS     CLOUDY    32  29  87 SE8       30.13S FOG
COLDWATER      CLOUDY    33  25  72 MISG      30.17F
HOLLAND        CLOUDY    36  28  73 SE9       30.15S
GRAND RAPIDS   MOCLDY    34  26  72 S9        30.16S
KALAMAZOO      PTCLDY    35  25  66 S7        30.16F
MARSHALL       CLOUDY    32  25  73 S9        30.17S
MUSKEGON       CLOUDY    35  27  72 SE7       30.14F
$$
MIZ016>042-212200-
NORTHERN LOWER MICHIGAN

CITY           SKY/WX    TMP DP  RH WIND       PRES   REMARKS
ALPENA         CLOUDY    31  28  89 S9        30.19S FOG
BEAVER ISLAND  CLOUDY    34  32  92 SE3       30.10R FOG
BELLAIRE       CLOUDY    34  29  84 SE3       30.13S HAZE
CADILLAC       CLOUDY    31  27  85 SE8       30.10S
CHARLEVOIX     CLOUDY    33  30  91 SE8       30.14S FOG
FRANKFORT      CLOUDY    33  30  88 S8        30.10S
GAYLORD        CLOUDY    30  27  88 S9        30.11S FOG
GRAYLING       CLOUDY    31  28  90 SE7       30.14S FOG
HARBOR SPRINGS CLOUDY    33  29  85 NE6       30.12F
HOUGHTON LAKE  CLOUDY    30  26  85 SE6       30.15S FOG
MANISTEE       CLOUDY    34  27  75 S7        30.11S
OSCODA         CLOUDY    32  28  86 S5        30.20S
PELLSTON       CLOUDY    32  28  85 SE7       30.13F
TRAVERSE CITY  CLOUDY    35  28  75 S7        30.11S
$$
MIZ007>008-015-212200-
EASTERN UPPER MICHIGAN

CITY           SKY/WX    TMP DP  RH WIND       PRES   REMARKS
KINROSS        CLOUDY    30  30 100 SE13      30.13S
MACKINAC ISLAN CLOUDY    32  28  87 SE7       30.12S
NEWBERRY       CLOUDY    30  29  98 SE12      30.08S FOG
S. S. MARIE    CLOUDY    30  24  78 SE9       30.14R
$$
MIZ004>006-011>014-085-212200-
CENTRAL UPPER MICHIGAN

CITY           SKY/WX    TMP DP  RH WIND       PRES   REMARKS
MANISTIQUE     DRIZZLE   35  35  99 S12G17    30.05F
ESCANABA       CLOUDY    36  32  87 S9        30.02S
MENOMINEE      CLOUDY    36  30  80 S9        30.01S
SAWYER-GWINN   LGT SNOW  32  30  93 S15G22    29.96F
$$
MIZ001>003-009>011-084-212200-
WESTERN UPPER MICHIGAN

CITY           SKY/WX    TMP DP  RH WIND       PRES   REMARKS
IRON MOUNTAIN  LGT SNOW  31  29  92 SE9       29.95F FOG
HOUGHTON       CLOUDY    33  28  81 SE12      29.89F
COPPER HARBOR    N/A     35  29  78 S9        29.93S
IRONWOOD       CLOUDY    34  30  86 S12       29.81S
$$

ABBREVIATIONS USED IN REMARKS
   TC - TEMPERATURE IN CELSIUS
  WCI - WIND CHILL INDEX
   HX - HEAT INDEX
  VSB - VISIBILITY




USA.gov is the U.S. government's official web portal to all federal, state and local government web resources and services.